Starlink 1513

operational
NORAD ID: 45786 Int'l Des: 2020-038 Owner: SPXS Country: US Constellation: starlink
LEOCIRCULAR

About Starlink 1513

Description loading...

Live Position

Loading 3D Globe...

Upcoming Passes

Altitude History

Altitude vs Time

uPlot chart will show altitude changes over time

Two-Line Element Set

1 45786U 20038BJ 26074.50348846 -.00008791 00000-0 -28473-3 0 9994
2 45786 53.1617 164.1460 0001390 83.3213 276.7946 15.30233828317737
Epoch: Mar 15, 2026 • Age: 14 hours

Current Status

Altitude 487.9 km
Velocity 7.62 km/s
Sub-Earth Point -37.34°S, 76.53°W
Launch Date Jun 13, 2020
Age 5.7 years
Type internet

Technical Details

Classification Payload
Mass 260.00 kg
Dry Mass 248.00 kg
Total Mass 260.00 kg
Length 0.20 m
Diameter 2.80 m
Span 9.00 m
Shape Box + pan
Manufacturer SPXS
Bus Type Starlink
Phase Status In Orbit
Owner/State SPXS/US

Large Constellations

Loading constellations...